This is the latest recevied weather packets stored in our database for station/object KG5WBN. If no packets are shown the sender has not sent any weather packets the latest 10 day(s).
| Time | Temp. | Humidity | Pressure | Rain* | Wind** | Luminosity | Snow |
|---|---|---|---|---|---|---|---|
| 1787706056 | 25.56° C | 85% | 1014.2 hPa | 0 mm | - | 0 W/m² | - |
| 1787705756 | 25.56° C | 85% | 1014.6 hPa | 0 mm | - | 0 W/m² | - |
| 1787705452 | 25.56° C | 85% | 1014.6 hPa | 0 mm | - | 0 W/m² | - |
| 1787705148 | 25.56° C | 86% | 1014.6 hPa | 0 mm | - | 0 W/m² | - |
| 1787704848 | 25.56° C | 88% | 1014.6 hPa | 0 mm | - | 0 W/m² | - |
| 1787704544 | 25.56° C | 88% | 1014.6 hPa | 0 mm | - | 0 W/m² | - |
| 1787704239 | 25.56° C | 89% | 1014.9 hPa | 0 mm | - | 0 W/m² | - |
| 1787703938 | 25.56° C | 89% | 1014.6 hPa | 0 mm | - | 0 W/m² | - |
| 1787703634 | 25.56° C | 89% | 1014.6 hPa | 0 mm | - | 0 W/m² | - |
| 1787703329 | 25.56° C | 88% | 1014.6 hPa | 0 mm | - | 0 W/m² | - |
| 1787703024 | 26.11° C | 85% | 1014.6 hPa | 0 mm | - | 0 W/m² | - |
| 1787702719 | 26.11° C | 85% | 1014.6 hPa | 0 mm | - | 0 W/m² | - |
| 1787702415 | 26.11° C | 83% | 1014.6 hPa | 1.27 mm | - | 0 W/m² | - |
| 1787702109 | 26.11° C | 78% | 1014.9 hPa | 0 mm | - | 0 W/m² | - |
| 1787701805 | 26.67° C | 76% | 1014.9 hPa | 0 mm | - | 0 W/m² | - |
| 1787701501 | 26.67° C | 75% | 1015.2 hPa | 0 mm | - | 0 W/m² | - |
| 1787701195 | 26.67° C | 74% | 1015.2 hPa | 0 mm | - | 1 W/m² | - |
| 1787700892 | 26.67° C | 79% | 1015.2 hPa | 0 mm | - | 1 W/m² | - |
| 1787700587 | 26.11° C | 79% | 1014.9 hPa | 0 mm | - | 1 W/m² | - |
| 1787700283 | 26.11° C | 80% | 1014.9 hPa | 0 mm | - | 1 W/m² | - |
| 1787699979 | 26.11° C | 80% | 1014.6 hPa | 0 mm | - | 1 W/m² | - |
| 1787699675 | 26.11° C | 81% | 1014.6 hPa | 0 mm | - | 2 W/m² | - |
| 1787699370 | 26.11° C | 81% | 1014.2 hPa | 0 mm | - | 2 W/m² | - |
| 1787699065 | 26.11° C | 82% | 1014.6 hPa | 0 mm | - | 3 W/m² | - |
| 1787698761 | 25.56° C | 82% | 1014.6 hPa | 0 mm | - | 4 W/m² | - |
* Rain latest hour (hover to see other rain measurements)
** Current wind speed in m/s (hover to see current wind gust speed)